TimeGMT,TemperatureF,Dew PointF,Humidity,Sea Level PressureIn,VisibilityMPH,Wind Direction,Wind SpeedMPH,Gust SpeedMPH,PrecipitationIn,Events,Conditions,WindDirDegrees,DateUTC
5:50 AM,51,48,87,30.25,13,South,19.6,,,,Mostly Cloudy,190,2013-01-07 05:50:00
8:50 AM,51,48,86,30.26,13,SSW,23.0,,,,Partly Cloudy,200,2013-01-07 08:50:00
8:50 AM,51.8,48.2,88,30.24,-9999.0,SSW,21.9,-,N/A,,Clear,200,2013-01-07 08:50:00
9:20 AM,51.8,48.2,88,30.24,6.2,SSW,23.0,-,N/A,,Scattered Clouds,200,2013-01-07 09:20:00
9:50 AM,51.8,48.2,88,30.27,6.2,SSW,23.0,-,N/A,,Mostly Cloudy,200,2013-01-07 09:50:00
10:20 AM,51.8,48.2,88,30.27,6.2,SSW,23.0,-,N/A,,Mostly Cloudy,200,2013-01-07 10:20:00
10:50 AM,51.8,48.2,88,30.24,6.2,SSW,21.9,-,N/A,,Mostly Cloudy,200,2013-01-07 10:50:00
11:20 AM,51.8,48.2,88,30.24,6.2,SSW,23.0,-,N/A,,Mostly Cloudy,200,2013-01-07 11:20:00
11:50 AM,52,49,85,30.25,10,SSW,23.0,,,,Overcast,200,2013-01-07 11:50:00
11:50 AM,51.8,48.2,88,30.24,6.2,SSW,23.0,-,N/A,,Mostly Cloudy,200,2013-01-07 11:50:00
12:20 PM,51.8,48.2,88,30.24,6.2,SSW,23.0,-,N/A,,Partly Cloudy,200,2013-01-07 12:20:00
1:20 PM,51.8,48.2,88,30.21,6.2,SSW,21.9,-,N/A,,Mostly Cloudy,200,2013-01-07 13:20:00
1:50 PM,51.8,50.0,94,30.21,6.2,South,21.9,-,N/A,,Mostly Cloudy,190,2013-01-07 13:50:00
2:50 PM,52,49,87,30.21,11,South,24.2,,,,Overcast,190,2013-01-07 14:50:00
2:50 PM,51.8,50.0,94,30.18,6.2,South,24.2,-,N/A,,Mostly Cloudy,190,2013-01-07 14:50:00
3:20 PM,51.8,50.0,94,30.21,6.2,SSW,24.2,-,N/A,,Mostly Cloudy,200,2013-01-07 15:20:00
3:50 PM,51.8,50.0,94,30.21,6.2,South,23.0,-,N/A,,Mostly Cloudy,190,2013-01-07 15:50:00
4:20 PM,51.8,50.0,94,30.21,6.2,SSW,23.0,-,N/A,,Mostly Cloudy,200,2013-01-07 16:20:00
4:50 PM,51.8,50.0,94,30.21,6.2,South,23.0,-,N/A,,Mostly Cloudy,190,2013-01-07 16:50:00
5:50 PM,52,50,89,30.21,8,South,23.0,,,,Mostly Cloudy,190,2013-01-07 17:50:00
8:50 PM,52,50,89,30.21,8,South,24.2,,,,Partly Cloudy,190,2013-01-07 20:50:00
11:50 PM,52,50,89,30.20,7,South,26.5,,,,Overcast,190,2013-01-07 23:50:00